Location: Maddington
(51.2000°N, 1.9167°W)
Time: 04:51:07
(UTC+00:00)

Cosmos 1300 Rocket - Pass Details

Date: 18 September 2020
Orbit: 602 x 626 km, 82.5° (Epoch: 20 October)

Event Time Altitude Azimuth Distance (km) Brightness Sun altitude
Rises 19:54:21 0° 190° (S) 2,879 6.9 -16.0°
Reaches altitude 10° 19:56:34 10° 191° (S) 1,982 6.0 -16.4°
Maximum altitude 20:00:58 85° 280° (W) 633 3.6 -17.0°
Drops below altitude 10° 20:05:26 10° 10° (N) 2,011 6.4 -17.6°
Sets 20:07:41 0° 11° (N) 2,924 7.2 -17.9°
